MMS 3

Last updated on Sun Jun 21 2026 00:02:59 GMT+0000 (Coordinated Universal Time)

1 40484U 15011C 26171.50003471 -.00000547 00000+0 00000+0 0 9990 2 40484 72.1584 348.7655 8320989 167.4588 276.5750 0.28298826 1395
UTC large
Height (km)
Speed (km/s)
/
Latitude / Longitude
Inclination (degrees)
Orbital Period (minutes)
Azimuth
Elevation
Range (km)
Doppler Factor

Next 0 passes for location: London (51.5072 / 0.1276)

No passes found over London.
MMS 3